[[{"header":{"parameterUnit":"m.s-1","parameterCategory":1,"la1":30.2991,"la2":30.254,"lo1":-89.0895,"lo2":-89.0444,"dy":0.0017,"dx":0.0017,"nx":28,"ny":28,"refTime":"2025-07-31T03:00:00:Z","depth":0,"parameterNumber":2,"parameterNumberName":"U-component_of_WINDS"},"data":[0,0,0,0,0,0,0,0,0,0,0,0,0,0,0,0,0,0,0,0,0,0,0,0,0,0,0,0,0,0,0,0,0,0,0,0,0,0,0,0,0,0,0,0,0,0,0,0,0,0,0,0,0,0,0,0,0,0,1.5678,1.568,0,1.5861,1.5863,1.5865,1.5931,1.593,1.593,1.5929,1.6117,1.6123,1.6128,0,0,0,0,0,0,0,0,0,0,0,0,0,1.539,1.5395,1.5678,1.5681,1.5683,1.586,1.5863,1.5865,1.5931,1.593,1.593,1.5929,1.6115,1.6122,1.6129,0,0,0,0,0,0,0,0,0,0,0,0,0,1.5538,1.5396,1.5678,1.5737,1.5744,1.586,1.5863,1.5866,1.5931,1.593,1.5929,1.5928,1.6113,1.6121,1.613,1.62,0,0,1.6155,1.6159,0,0,0,0,0,0,0,0,1.5529,1.5548,1.5726,1.5733,1.5741,1.5872,1.583,1.5978,1.5931,1.586,1.5929,1.5928,1.6037,1.6051,1.6087,1.6209,1.6217,1.6156,1.6161,1.6165,1.6167,0,0,0,0,0,0,0,1.5519,1.5541,1.575,1.5729,1.5738,1.5755,1.5775,1.5858,1.5951,1.5866,1.5872,1.5892,1.6041,1.6079,1.6092,1.622,1.6156,1.6163,1.6168,1.6172,1.641,1.6411,0,0,0,0,0,0,1.5498,1.5532,1.5745,1.5756,1.5631,1.5761,1.5783,1.5831,1.5951,1.5968,1.5893,1.5895,1.6065,1.6082,1.6099,1.619,1.6165,1.6173,1.6177,1.6408,1.641,1.6411,0,0,0,0,0,0,1.5492,1.5517,1.5737,1.5645,1.5675,1.5767,1.582,1.5835,1.5874,1.5971,1.5988,1.5915,1.6065,1.6087,1.6175,1.6198,1.6176,1.6184,1.6407,1.6409,1.6411,1.6372,0,0,0,0,0,0,1.5483,1.5514,1.5541,1.5645,1.5679,1.5809,1.5821,1.5839,1.5888,1.5892,1.5996,1.6012,1.6066,1.6162,1.6183,1.6209,1.6191,1.6405,1.6408,1.641,1.6372,1.6372,1.6373,0,0,0,0,0,1.5473,1.5523,1.5542,1.5567,1.5715,1.581,1.5829,1.589,1.5889,1.5918,1.598,1.6009,1.6192,1.617,1.6195,1.6223,1.6404,1.6407,1.641,1.6371,1.6372,1.6373,0,0,0,0,0,0,1.5419,1.5538,1.556,1.5646,1.5717,1.5821,1.5858,1.5889,1.5962,1.5963,1.6036,1.6059,1.614,1.6191,1.6165,1.6298,1.63,1.6308,1.6262,1.6264,1.6264,1.625,1.6197,0,0,0,0,0,1.5417,1.5484,1.5584,1.565,1.5685,1.5765,1.5809,1.5849,1.5927,1.5957,1.6026,1.6101,1.6175,1.6222,1.6296,1.638,1.6404,1.6411,1.6412,1.6412,1.6418,1.6467,1.6471,1.6421,1.6421,1.6421,0,0,1.5414,1.5487,1.5525,1.5641,1.5701,1.5769,1.579,1.5861,1.5913,1.5968,1.6055,1.6108,1.6196,1.6282,1.6323,1.6326,1.6437,1.6416,1.6415,1.6421,1.647,1.6475,1.6479,1.6423,1.6423,1.6422,0,0,1.5443,1.5504,1.5566,1.5626,1.5717,1.5771,1.5785,1.5885,1.5923,1.601,1.6054,1.6117,1.6243,1.6304,1.6352,1.6405,1.6434,1.6427,1.643,1.6477,1.648,1.6484,1.6503,1.6509,1.6432,1.6432,1.6432,0,1.5427,1.5531,1.5594,1.5663,1.5713,1.5767,1.583,1.5886,1.5996,1.603,1.6032,1.6192,1.6255,1.6356,1.6369,1.6406,1.6426,1.6415,1.6475,1.6479,1.6484,1.6503,1.651,1.6431,1.6431,1.6431,1.6431,0,1.5507,1.5579,1.5618,1.5723,1.5778,1.5843,1.5917,1.5966,1.6002,1.6055,1.6144,1.6222,1.6313,1.634,1.6376,1.6446,1.6446,1.646,1.6463,1.6486,1.6505,1.6513,1.6429,1.6429,1.643,1.643,0,0,1.5506,1.5646,1.5659,1.5708,1.5813,1.587,1.5938,1.6027,1.6067,1.6141,1.6201,1.6307,1.6322,1.6376,1.6419,1.646,1.6498,1.647,1.6473,1.6472,1.6581,1.6568,1.6576,1.6518,1.652,1.6521,1.6573,0,1.5548,1.5673,1.5733,1.5831,1.5898,1.5951,1.6011,1.6082,1.6134,1.6199,1.6258,1.6331,1.6345,1.6378,1.6421,1.6484,1.652,1.6481,1.6575,1.6577,1.655,1.6586,1.6573,1.6619,1.6581,1.6582,1.6583,0,1.5614,1.5688,1.5793,1.5891,1.5921,1.5974,1.606,1.6122,1.6204,1.6239,1.63,1.6342,1.6418,1.6415,1.6521,1.6492,1.6535,1.6572,1.6575,1.6586,1.6581,1.6597,1.6635,1.6641,1.6596,1.6595,1.6594,0,1.5602,1.5729,1.5808,1.5848,1.5964,1.6,1.605,1.6132,1.6181,1.6257,1.629,1.6374,1.6419,1.6484,1.6548,1.654,1.6647,1.665,1.6678,1.6677,1.6698,1.6696,1.6742,1.6725,1.6725,1.6725,1.6725,0,1.5643,1.5705,1.5805,1.5853,1.5925,1.5994,1.6063,1.6117,1.6189,1.625,1.6301,1.6357,1.6439,1.6506,1.6556,1.6636,1.6656,1.6687,1.67,1.6682,1.6678,1.6711,1.6709,1.6727,1.6727,1.6726,1.6726,0,1.5642,1.5711,1.5801,1.5904,1.5931,1.5979,1.6068,1.6117,1.6172,1.6249,1.6271,1.6357,1.6438,1.6509,1.6616,1.6651,1.6732,1.6748,1.6704,1.6711,1.6735,1.6732,1.6804,1.6817,1.6791,1.6791,1.6791,0,1.5663,1.5712,1.582,1.5864,1.5913,1.5984,1.6035,1.6105,1.6156,1.6254,1.6292,1.6377,1.6449,1.6576,1.6649,1.6731,1.6749,1.6769,1.6762,1.6743,1.675,1.6746,1.6751,1.6769,1.6769,1.6769,1.6769,0,1.5693,1.5725,1.5796,1.588,1.5939,1.6008,1.6079,1.6112,1.6196,1.6251,1.6334,1.639,1.6499,1.6583,1.6674,1.6726,1.6762,1.677,1.6781,1.6764,1.6736,1.6751,1.6704,1.6768,1.6768,1.6768,1.6768,1.6768,1.5704,1.575,1.5833,1.5911,1.5972,1.6037,1.6089,1.6151,1.6221,1.6316,1.6353,1.6438,1.6521,1.6646,1.6699,1.6767,1.6773,1.6789,1.6793,1.6795,1.6792,1.6725,1.6784,1.6784,1.6784,1.6784,1.6784,0,1.5736,1.5793,1.5864,1.5961,1.6023,1.605,1.6131,1.618,1.6254,1.6328,1.6397,1.6494,1.6575,1.6655,1.6741,1.678,1.6799,1.6801,1.6798,1.681,1.6782,1.6764,1.6784,1.6784,1.6784,1.6784,1.6784,1.6784,1.576,1.584,1.5882,1.5993,1.605,1.6133,1.6177,1.6237,1.6297,1.6402,1.647,1.6521,1.6598,1.669,1.6766,1.6788,1.6817,1.6815,1.684,1.6813,1.6812,1.6811,1.6794,1.682,1.682,1.6862,1.6863,1.6863]},{"header":{"parameterUnit":"m.s-1","parameterCategory":1,"la1":30.2991,"la2":30.254,"lo1":-89.0895,"lo2":-89.0444,"dy":0.0017,"dx":0.0017,"nx":28,"ny":28,"refTime":"2025-07-31T03:00:00:Z","depth":0,"parameterNumber":3,"parameterNumberName":"V-component_of_WINDS"},"data":[0,0,0,0,0,0,0,0,0,0,0,0,0,0,0,0,0,0,0,0,0,0,0,0,0,0,0,0,0,0,0,0,0,0,0,0,0,0,0,0,0,0,0,0,0,0,0,0,0,0,0,0,0,0,0,0,0,0,4.0982,4.0983,0,4.1056,4.1057,4.1058,4.1044,4.1043,4.1042,4.104,4.1109,4.1112,4.1115,0,0,0,0,0,0,0,0,0,0,0,0,0,4.0822,4.0825,4.0982,4.0983,4.0984,4.1056,4.1057,4.1058,4.1044,4.1043,4.1041,4.104,4.1108,4.1112,4.1115,0,0,0,0,0,0,0,0,0,0,0,0,0,4.0893,4.0826,4.0982,4.0986,4.0987,4.1056,4.1057,4.1058,4.1045,4.1043,4.1041,4.1039,4.1107,4.1111,4.1116,4.1183,0,0,4.113,4.1132,0,0,0,0,0,0,0,0,4.0889,4.0899,4.0984,4.0986,4.0987,4.1039,4.1026,4.11,4.1045,4.1023,4.104,4.1038,4.1087,4.1093,4.1111,4.1186,4.1189,4.113,4.1133,4.1135,4.1136,0,0,0,0,0,0,0,4.0884,4.0896,4.1011,4.0986,4.0987,4.0982,4.099,4.104,4.1064,4.1024,4.1024,4.1033,4.1087,4.1107,4.1112,4.119,4.113,4.1134,4.1137,4.1139,4.1324,4.1326,0,0,0,0,0,0,4.0879,4.0892,4.1009,4.1013,4.0933,4.0986,4.0995,4.1024,4.1064,4.1068,4.1035,4.1032,4.11,4.1107,4.1115,4.1196,4.1135,4.1139,4.1142,4.1321,4.1324,4.1326,0,0,0,0,0,0,4.0876,4.089,4.1006,4.0952,4.0967,4.0991,4.1024,4.1027,4.1046,4.1072,4.1075,4.105,4.1099,4.1108,4.1167,4.1198,4.1141,4.1145,4.1319,4.1322,4.1325,4.1359,0,0,0,0,0,0,4.0871,4.0889,4.0916,4.0953,4.097,4.1058,4.1026,4.103,4.1055,4.1052,4.1087,4.1091,4.1098,4.116,4.1171,4.1204,4.1149,4.1316,4.132,4.1324,4.1355,4.1363,4.137,0,0,0,0,0,4.0866,4.0921,4.0917,4.0932,4.1005,4.106,4.1069,4.1078,4.1058,4.1084,4.1101,4.109,4.1193,4.1166,4.1178,4.1213,4.1314,4.1319,4.1324,4.1352,4.1362,4.137,0,0,0,0,0,0,4.0884,4.0926,4.0922,4.0992,4.1023,4.1058,4.1092,4.1088,4.1123,4.1119,4.1126,4.1134,4.1193,4.1208,4.1177,4.128,4.125,4.1258,4.1268,4.1277,4.1284,4.1279,4.1153,0,0,0,0,0,4.0897,4.094,4.0974,4.1031,4.1048,4.1067,4.1092,4.1096,4.1127,4.1139,4.116,4.1189,4.1228,4.1253,4.129,4.1357,4.1365,4.1387,4.1394,4.14,4.1407,4.1444,4.1454,4.1343,4.1342,4.1342,0,0,4.0922,4.095,4.0977,4.1036,4.1061,4.1104,4.1078,4.1125,4.1157,4.1145,4.1203,4.1219,4.1251,4.1315,4.1343,4.1329,4.1439,4.1407,4.1411,4.1414,4.145,4.146,4.147,4.1346,4.1345,4.1345,0,0,4.0991,4.1017,4.1069,4.1095,4.1133,4.1146,4.1158,4.1194,4.1205,4.1263,4.1256,4.1292,4.1359,4.1383,4.1404,4.1482,4.1474,4.1494,4.1532,4.1568,4.1577,4.1584,4.1613,4.1623,4.15,4.15,4.15,0,4.1017,4.1085,4.1095,4.1144,4.1169,4.1164,4.1215,4.1238,4.1286,4.1303,4.1287,4.1371,4.1393,4.1462,4.1481,4.1498,4.1511,4.149,4.1575,4.1583,4.159,4.1617,4.1628,4.1502,4.1502,4.1502,4.1502,0,4.1115,4.1162,4.1199,4.1248,4.1278,4.1327,4.1343,4.1371,4.1372,4.1386,4.1444,4.147,4.1513,4.1529,4.153,4.1598,4.1588,4.1574,4.1544,4.1603,4.1629,4.1639,4.1506,4.1505,4.1504,4.1504,0,0,4.1198,4.1253,4.1266,4.1289,4.1331,4.1366,4.1415,4.1459,4.1483,4.1515,4.1555,4.1613,4.16,4.1623,4.1626,4.1658,4.1719,4.1639,4.164,4.1653,4.1796,4.1807,4.1819,4.1713,4.1715,4.1717,4.1793,0,4.1271,4.136,4.1371,4.1449,4.1492,4.1487,4.1529,4.1558,4.1572,4.1609,4.1623,4.1664,4.1644,4.1658,4.1689,4.1705,4.1747,4.1699,4.1749,4.1751,4.1742,4.1832,4.1844,4.1915,4.1803,4.1805,4.1806,0,4.1369,4.1407,4.1491,4.1528,4.1546,4.1584,4.1626,4.1661,4.1694,4.1701,4.1729,4.1728,4.1776,4.1745,4.181,4.1778,4.1798,4.1809,4.1812,4.1817,4.1782,4.184,4.1937,4.1948,4.1821,4.182,4.1819,0,4.1421,4.1493,4.1553,4.1572,4.1617,4.1644,4.1663,4.1694,4.172,4.1755,4.1771,4.1811,4.1832,4.1862,4.1871,4.1847,4.1936,4.1906,4.1943,4.1943,4.1962,4.1961,4.2065,4.1975,4.1975,4.1975,4.1974,0,4.1502,4.1553,4.1578,4.1614,4.1671,4.1681,4.1736,4.1754,4.1782,4.182,4.1817,4.1852,4.1862,4.1899,4.1906,4.1959,4.1969,4.1975,4.1977,4.1976,4.1975,4.199,4.1986,4.1978,4.1977,4.1976,4.1976,0,4.1571,4.1589,4.1654,4.1691,4.1702,4.1742,4.1773,4.1807,4.1821,4.1869,4.1881,4.1902,4.1945,4.1957,4.2008,4.2013,4.2076,4.2072,4.2066,4.2066,4.2103,4.2099,4.222,4.2237,4.2135,4.2136,4.2137,0,4.1622,4.1661,4.1704,4.1731,4.1752,4.1795,4.1822,4.1834,4.1862,4.1902,4.1931,4.1975,4.201,4.2079,4.2097,4.2136,4.2133,4.2173,4.2139,4.2137,4.2134,4.2132,4.2136,4.2179,4.218,4.2181,4.2182,0,4.171,4.1717,4.1758,4.1803,4.1836,4.1871,4.1904,4.1925,4.1941,4.1972,4.2018,4.2046,4.2099,4.2142,4.2181,4.2198,4.2193,4.2193,4.2204,4.2204,4.2199,4.2202,4.2084,4.219,4.2189,4.2189,4.2188,4.2188,4.1771,4.1807,4.1843,4.1889,4.1915,4.1947,4.1981,4.2,4.2039,4.2086,4.2089,4.2138,4.2169,4.2222,4.2242,4.2279,4.2267,4.2282,4.2286,4.229,4.2294,4.2193,4.2286,4.2286,4.2286,4.2285,4.2285,0,4.186,4.1884,4.1926,4.1974,4.2009,4.2003,4.204,4.2069,4.2114,4.2144,4.218,4.2232,4.2273,4.2295,4.2336,4.2362,4.236,4.2372,4.237,4.2374,4.2302,4.2289,4.2373,4.2373,4.2373,4.2373,4.2373,4.2373,4.1911,4.1971,4.1982,4.2055,4.2077,4.2128,4.2149,4.2177,4.2202,4.2262,4.2297,4.2312,4.2339,4.2382,4.2419,4.2424,4.2439,4.2453,4.2456,4.2388,4.2379,4.2371,4.2359,4.2456,4.2456,4.2526,4.2527,4.2527]}]]